Regional Weather Roundup
Issued by NWS

Home | Current Version | Previous Version | Graphics & Text | Print | Product List | Glossary On
Versions: 1 2 3 4 5 6 7 8 9 10 11 12 13 14 15 16 17 18 19 20 21 22 23 24 25 26 27 28 29 30 31 32 33 34 35 36 37 38 39 40 41 42 43 44 45 46 47 48 49 50
000
ASUS43 KLOT 300506
RWRIL

ILLINOIS REGIONAL WEATHER ROUNDUP
NATIONAL WEATHER SERVICE CHICAGO/ROMEOVILLE IL
1200 AM CDT SAT AUG 30 2014

NOTE: "FAIR" INDICATES FEW OR NO CLOUDS BELOW 12,000 FEET WITH NO
SIGNIFICANT WEATHER AND/OR OBSTRUCTIONS TO VISIBILITY.

* THESE STATIONS ARE NOT UNDER NWS QUALITY CONTROL. THEY ALSO MAY NOT
  REPORT WEATHER SUCH AS PRECIPITATION OR FOG.

ILZ001-002-007-009-015-016-024-300600-
NORTHWEST ILLINOIS

CITY           SKY/WX    TMP DP  RH WIND       PRES   REMARKS
MOLINE         CLOUDY    71  68  90 S8        29.82S
STERLING*      CLOUDY    72  66  83 S3        29.84S
SAVANNA*       CLOUDY    73  67  84 S8        29.82S
$$

ILZ003-004-008-010-011-017-018-300600-
NORTH CENTRAL ILLINOIS

CITY           SKY/WX    TMP DP  RH WIND       PRES   REMARKS
ROCKFORD       LGT RAIN  73  68  84 S12       29.85S
FREEPORT*      HVY RAIN  73  70  91 S13       29.85F
ROCHELLE*      CLOUDY    70  67  89 S8        29.85F
DE KALB*       LGT RAIN  72  68  89 S10       29.87F
PERU*          CLOUDY    73  68  85 S8        29.85F
$$

ILZ005-006-012>014-019>023-300600-
NORTHEAST ILLINOIS

CITY           SKY/WX    TMP DP  RH WIND       PRES   REMARKS
CHICAGO-OHARE  CLOUDY    75  67  76 S12       29.86F
CHICAGO-MIDWAY MOCLDY    77  69  76 S12       29.88S
AURORA         CLOUDY    75  69  81 S9        29.87S
LANSING*         N/A    N/A N/A N/A MISG        N/A
JOLIET*        MOCLDY    73  68  82 S6        29.89S
WAUKEGAN       MOCLDY    74  69  85 SE7       29.85F
DUPAGE AIRPORT CLOUDY    75  69  81 S12       29.87S
KANKAKEE*      MOCLDY    73  69  87 SE9       29.91S
WHEELING       MOCLDY    78  69  73 S14       29.87F HX  80
MORRIS*        LGT RAIN  74  73  94 S5        29.88S
ROMEOVILLE*    MOCLDY    72  70  93 S10       29.89R
NORTHERLY ISL    N/A     75  67  76 S12         N/A
$$

LMZ740>746-300600-
SOUTHERN LAKE MICHIGAN

STATION/POSITION SKY/WX   TEMP    WIND        PRES    VSBY  WAVE
                          AIR SEA DIR/SP/G                  HT/PER
                          (F)     (DEG/KT/KT) (MB)    (MI)  (FT/S)
SOUTHERN BUOY              72 69  160/ 16/ 19 1011.5F
WAUKEGAN HARBOR            73     160/ 18/ 20   N/A
HARRISON CRIB              74     170/ 19/ 22   N/A
BURNHAM HARBOR             75     160/ 11/ 14   N/A
CALUMET HARBOR             74     160/  7/ 11 1011.1F
MICHIGAN CITY              72     130/ 12/ 17   N/A
MICHIGAN CITY 6N           73 72  160/ 14/ 17   N/A           1/ 2
ST. JOSEPH                 71 70  150/ 14/ 16   N/A           2/ 3
$$

ILZ025>027-034>036-040-047-049-050-058-095>099-300600-
WEST-CENTRAL ILLINOIS

CITY           SKY/WX    TMP DP  RH WIND       PRES   REMARKS
QUINCY         PTCLDY    72  69  90 S9        29.87S
GALESBURG*     CLOUDY    69  68  97 S6        29.85S
MACOMB*        CLOUDY    71  70  97 S7        29.87F
JACKSONVILLE*  CLOUDY    75  72  90 S6        29.90S
PITTSFIELD*    CLOUDY    73  70  90 S6        29.89S
$$

ILZ028>032-037-038-041>044-048-051>054-059>061-300600-
CENTRAL ILLINOIS

CITY           SKY/WX    TMP DP  RH WIND       PRES   REMARKS
PONTIAC        MOCLDY    73  73 100 E3        29.89F FOG
DECATUR        CLOUDY    78  69  73 S12       29.92S HX  80
PEORIA         CLOUDY    73  69  87 S7        29.86F
LACON*         CLOUDY    70  67  92 S3        29.84F
LINCOLN*       CLOUDY    75  70  84 S7        29.86S
SPRINGFIELD    CLOUDY    75  70  84 S10       29.89S
TAYLORVILLE    CLOUDY    73  68  83 S10       29.91S
$$

ILZ033-039-045-046-055>057-062-063-300600-
EAST-CENTRAL ILLINOIS

CITY           SKY/WX    TMP DP  RH WIND       PRES   REMARKS
CHAMPAIGN      MOCLDY    75  70  84 S10       29.93S
DANVILLE*      HVY RAIN  71  69  94 S6        29.92S
MATTOON        MOCLDY    76  68  76 S6        29.93F
PARIS*         CLEAR     71  70  98 S3        29.97R FOG
$$

ILZ079-100>102-300600-
SOUTHWEST ILLINOIS

CITY           SKY/WX    TMP DP  RH WIND       PRES   REMARKS
BELLEVILLE     CLOUDY    76  70  80 VRB7      29.93R
CAHOKIA*       CLOUDY    79  68  69 SW8G22    29.92S HX  81
SPARTA*        LGT RAIN  73  69  90 S9G16     29.96F
$$

ILZ064>066-069>071-074>076-080>082-084>086-088>090-092>094-300600-
SOUTH-CENTRAL ILLINOIS

CITY           SKY/WX    TMP DP  RH WIND       PRES   REMARKS
CARBONDALE     CLOUDY    74  68  81 S13       29.97F
CAIRO*         CLOUDY    75  70  85 CALM      29.99F
EFFINGHAM*     CLOUDY    78  64  63 S6        29.94S
MARION         CLOUDY    77  68  73 SW15      29.99S
MT. VERNON     MOCLDY    75  66  73 S13       29.97R
CENTRALIA*     CLOUDY    75  66  73 S13       29.95S
SALEM*         MOCLDY    78  70  75 S7        29.95S HX  81
METROPOLIS*    CLOUDY    76  68  76 SW3       30.00S
$$

ILZ067-068-072-073-078-083-087-091-300600-
SOUTHEAST ILLINOIS

CITY           SKY/WX    TMP DP  RH WIND       PRES   REMARKS
LAWRENCEVILLE  MOCLDY    74  70  87 S8        29.97S
FLORA*         PTCLDY    74  68  82 S5        29.96S
FAIRFIELD*     MOCLDY    75  72  88 CALM      29.96S
HARRISBURG*    CLOUDY    78  68  70 SW9       29.99R HX  80
ROBINSON*      PTCLDY    75  71  86 S7        29.97S
CARMI*         MOCLDY    75  70  83 SE6       29.97S
$$

ABBREVIATIONS USED IN REMARKS
   TC - TEMPERATURE IN CELSIUS
  WCI - WIND CHILL INDEX
   HX - HEAT INDEX
  VSB - VISIBILITY
$$



USA.gov is the U.S. government's official web portal to all federal, state and local government web resources and services.